VENTE - RECHERCHE - ÉCHANGE - ESSAI - VOLÉ
Tous - Deux roues - Tricycle - Tandem - Vélomobile
Autoconstruction - Assistance électrique - Equipement

Nombre d'annonces: 143
MARQUE MODELE DEPT PRIX DATE PHOTO
8433 NAZCA PIONEER 33 1150 27-06-2017
8430 PERFORMER TRICYCLE ALU 20/26 30 1500 26-06-2017
8431 CATRIKE EXPEDITION 38 1600 26-06-2017
8432 CHALLENGE CONCEPT TRIKE 59 1500 26-06-2017
8427 OPTIMA RHINO 85 700 25-06-2017
8428 WAW B-WAW 78 4400 25-06-2017
8429 VELOMOBILE QUEST Suisse 3000 25-06-2017
8424 LONGBIKE Fateba Suisse 1500 24-06-2017
8425 OPTIMA RIDER 31 50 24-06-2017
8426 M5 26/28 44 1000 24-06-2017
8422 VENTISIT mousse 86x25x22 38 30 23-06-2017
8417 MILAN GT MK2 47 5200 22-06-2017
8416 HP VELOTECHNIK STREETMACHINE GTE 05 1800 21-06-2017
8411 OPTIMA BARON 38 1200 20-06-2017
8414 HP VELOTECHNIK SCORPION 22 2200 20-06-2017
8413 OPTIMA LYNXX 77 50 20-06-2017
8409 CHALLENGE FUJIN SL II 93 1500 19-06-2017
8410 OPTIMA ORCA 35 1100 19-06-2017
8406 ARKEL Sacoches RT-60 02 150 17-06-2017
8408 HP VELOTECHNIK SCORPION FS 02 2500 17-06-2017
8403 HP VELOTECHNIK SCORPION 73 2200 16-06-2017
8404 OPTIMA COUGAR 72 1400 16-06-2017
8402 CHALLENGE SEIRAN 93 1100 15-06-2017
8399 HP VELOTECHNIK SCORPION 74 3990 15-06-2017
8401 HASE KETTWIESEL ALU 01 3850 15-06-2017
8396 OPTIMA ORCA 35 1500 14-06-2017
8397 OPTIMA DRAGON 85 1200 14-06-2017
8395 PERFORMER HIGH RACER 24 1600 12-06-2017
8390 METABIKE METAPHYSIC 34 1400 11-06-2017
8391 METABIKE METAPHYSIC 34 1500 11-06-2017
8387 M5 LOW RACER 60 900 10-06-2017
8386 HP VELOTECHNIK SPEEDMACHINE 92 2250 10-06-2017
8388 OPTIMA DRAGON 05 1100 10-06-2017
8384 M5 SP 451 95 600 09-06-2017
8379 HP VELOTECHNIK 14 200 07-06-2017
8376 HASE TRETS 38 1400 06-06-2017
8371 PERFORMER TOSCANA 20/26 USS 51 1850 05-06-2017
8373 CRUZBIKE VENDETTA 38 1700 05-06-2017
8374 BARCROFT VIRGINIA TITANIUM 73 1350 05-06-2017
8370 SHIMANO 17 15 03-06-2017
8363 PERFORMER HIGH RACER 17 1100 01-06-2017
8364 PERFORMER AGENDA 17 1100 01-06-2017
8366 ICE TRICE QNT 38 950 01-06-2017
8368 MIBO Express 78 300 01-06-2017
8361 TOXY ZR 44 2990 31-05-2017
8362 AZUB T-TRIS 06 2200 31-05-2017
8350 CATRIKE SPEED 38 1350 30-05-2017
8351 M5 City-Racer 07 1200 30-05-2017
8356 WHIKE 33 2200 30-05-2017
8345 BIONX Moteur roue 01 0 28-05-2017
8344 AZUB T-TRIS 20 2600 28-05-2017
8346 TOPEAK Sacoche 05 25 28-05-2017
8347 SIN MARCA sin marca Etranger 30 28-05-2017
8349 NAZCA GAUCHO 76 1800 28-05-2017
8340 HP VELOTECHNIK GRASSHOPPER 37 1700 27-05-2017
8341 GOLDEN MOTORS Smart Pie PLUS 33 300 27-05-2017
8343 RAINBOW Lyra 93 980 27-05-2017
8335 PERFORMER AGENDA 31 950 24-05-2017
8334 OPTIMA COUGAR 31 1490 22-05-2017
8332 VELOMOBILE DF 33 6990 21-05-2017
8329 OPTIMA ORCA 42 900 19-05-2017
8326 HASE KETTWIESEL ALU 69 1890 18-05-2017
8325 BIONX KIT P 250 R 54 1200 18-05-2017
8320 OPTIMA LYNXX 33 1300 16-05-2017
8321 NAZCA FUEGO 13 1200 16-05-2017
8311 CATRIKE ROAD 63 3200 15-05-2017
8310 CATRIKE ROAD 63 1700 15-05-2017
8299 OPTIMA TANDEM 13 2000 15-05-2017
8303 INTERCITY BIKE DF XL 02 7700 15-05-2017
8312 HASE PINO TANDEM 81 3000 15-05-2017
8314 CATRIKE ROAD 02 1700 15-05-2017
8297 OPTIMA ORYX 26/26 25 1100 14-05-2017
8293 HASE KETTWIESEL ALU 67 4100 12-05-2017
8294 HASE KETTWIESEL ALU 67 2100 12-05-2017
8295 HASE KETTWIESEL ALU 67 5800 12-05-2017
8290 HASE KETTWIESEL ALU 16 4750 09-05-2017
8285 TROYTEC REVOLUTION HR 60 0 08-05-2017
8282 Jantes 20 pouces 33 40 07-05-2017
8283 O SYMéTRIC 33 50 07-05-2017
8279 RANS STRATUS XP 86 1200 06-05-2017
8281 TRIDENT TERRAIN 47 1600 06-05-2017
8278 NAZCA PIONEER 59 1350 05-05-2017
8273 TERRATRIKE TANDEM 14 3200 04-05-2017
8256 HASE KETTWIESEL ALU 68 1900 03-05-2017
8258 OPTIMA LYNX Suisse 1000 03-05-2017
8236 SPECIALITE TA ALIZE 37 25 25-04-2017
8233 PERFORMER GOAL-26X 34 650 24-04-2017
8229 OPTIMA STINGER 17 1450 23-04-2017
8223 NAZCA FUEGO 85 1450 21-04-2017
8219 HP VELOTECHNIK SCORPION FS 72 2700 20-04-2017
8218 WAW WAW Belgique 6900 19-04-2017
8217 PARACHUTE WIM SCHERMER Parachutes Wim Schermer 29 60 19-04-2017
8212 NAZCA PIONEER 13 2200 18-04-2017
8213 HP VELOTECHNIK SCORPION FX 33 2800 18-04-2017
8215 VELOGIC Lowpulse 78 800 18-04-2017
8208 NAZCA EXPLORER 14 1800 16-04-2017
8203 OPTIMA COUGAR Belgique 1390 14-04-2017
8197 CHALLENGE SEIRAN Suisse 1450 10-04-2017
8196 CATRIKE 72 40 10-04-2017
8191 HASE KETTWIESEL ALU 14 3500 09-04-2017
8186 CATRIKE SPEED 06 2950 08-04-2017
8179 OPTIMA HIGHBARON 79 1600 05-04-2017
8174 CHALLENGE SEIRAN SL 44 900 04-04-2017
8167 NAZCA PIONEER 68 1550 30-03-2017
8158 ICE TRICE QNT 60 3500 28-03-2017
8162 RANS ROCKET 60 1250 28-03-2017
8149 ULTIMATE BIKES COBRA 67 1000 27-03-2017
8156 RANS XSTREAM 29 1300 27-03-2017
8157 AZUB ECO 20 88 850 27-03-2017
8140 VELOMOBILE QUEST 92 4700 26-03-2017
8133 VELOMOBILE QUESTXS 78 5300 22-03-2017
8129 ZOCKRA HIGH RACER HR700 Etranger 2999 20-03-2017
8127 KETTWIESEL MODELE H 11 0 19-03-2017
8128 OPTIMA HIGHBARON 57 1400 19-03-2017
8117 FLEVOBIKE ??? 42 0 15-03-2017
8109 M5 CITY-RACER 33 1650 12-03-2017
8111 AUTOCONSTRUCTION Traction directe 11 200 12-03-2017
8112 SCHWALBE Shredda 92 70 12-03-2017
8087 NAZCA GAUCHO 08 1700 06-03-2017
8083 WAW WAW Suisse 4550 01-03-2017
8079 VELOMOBILE WAW 47 0 28-02-2017
8073 BACCHETTA GIRO 26 ATT 35 600 24-02-2017
8065 KMX CYCLONE 31 375 23-02-2017
8063 HP VELOTECHNIK SPEEDMACHINE 69 2600 22-02-2017
8064 ICE SPRINT 3FS Belgique 2800 22-02-2017
8059 KENDA Pneus 69 50 21-02-2017
8060 SCHWALBE Marathon winter 69 100 21-02-2017
8061 SHIMANO Pédalier 69 120 21-02-2017
8046 M5 TANDEM 74 3200 19-02-2017
8050 SON XS 56 325 19-02-2017
8030 AZUB ORIGAMI 67 1500 11-02-2017
8031 07 150 11-02-2017
8025 RADIUS RED PEPPER 13 300 05-02-2017
8013 AUTOCONSTRUCTION Trike 74 200 29-01-2017
8012 KINGCYCLE coque avant 21 75 27-01-2017
8011 FLEVOBIKE GREENMACHINE 21 2750 24-01-2017
8002 CATRIKE ROAD Suisse 1200 21-01-2017
8000 VELOMOBILE QUEST 68 6000 17-01-2017
7989 NAZCA FIERO 37 900 10-01-2017
7982 VELOMOBILE STRADA 72 3500 05-01-2017
7983 AZUB TWIN 60 3400 05-01-2017
7969 SCHWALBE Big Apple 63 25 02-01-2017
7961 OPTIMA STINGER 88 1800 31-12-2016